Вернуться в каталог

OPS 4682 DEB

АктивенPO
NORAD 19664·DEBRIS·🇺🇸 United States

Запущен Apr 3, 1965 с Vandenberg Space Force Base

Loading…

Ближайшие Пролёты (ближайшие 24 часа)

TLE

СвежийSource: Space-Track

Эпоха: Sep 14, 2026, 05:56 UTC

1 19664U 65027AX  26257.24764766 -.00000197  00000-0 -64056-3 0  9993
2 19664  90.2286 359.7671 0022296 306.6654  81.3210 13.03944864 68140

Отслеживайте OPS 4682 DEB в реальном времени с AllMySat

Download on the App Store